Flag for Sweden Weather past 2 weeks in Karlstad, Sweden

Now
75 °F

Mild.


Feels Like: 78 °F
Forecast: 62 / 83 °F
Wind: 2 mph from North

Location: Borlange Airport

Current Time: Jul 23, 2014 at 11:09:10 AM

Latest Report: Jul 23, 2014 at 10:20 AM


Visibility: N/A

Pressure: 30.30 "Hg

Humidity: 47%

Dew point: 54 °F

Location of KarlstadLocation

Historic Weather in Karlstad — Graph

°F

Karlstad temperature yesterday

Maximum temperature yesterday: 81 °F (at 2:50 PM)
Minimum temperature yesterday: 55 °F (at 3:20 AM)
Average temperature yesterday: 69 °F

Past Weeks' High & Low Weather Summary

 TemperatureHumidityPressure
High82 °F (Jul 10, 2:20 PM)100% (Jul 9, 4:50 AM)30.33 "Hg (Jul 9, 4:50 AM)
Low46 °F (Jul 12, 4:20 AM)32% (Jul 10, 3:50 PM)29.71 "Hg (Jul 14, 4:50 AM)
Average66 °F73%30.05 "Hg
* Reported Jul 8 7:20 AM — Jul 23 7:50 AM, Karlstad, Weather by CustomWeather, © 2014

Note: Actual official high and low records may vary slightly from our data, if they occured in-between our weather recording intervals... More about our weather records

Advertising

Karlstad weather history for previous 24 hours

 ConditionsComfort  
Time TempWeatherWind HumidityBarometerVisibility
7:50 AM
Jul 23
64 °FMild.No wind73%30.33 "HgN/A
7:20 AM63 °FMild.No wind77%30.33 "HgN/A
6:50 AM59 °FCool.3 mph82%30.33 "HgN/A
6:20 AM55 °FCool.3 mph94%30.33 "HgN/A
5:50 AM54 °FCool.5 mph94%30.33 "HgN/A
5:20 AM54 °FCool.3 mph94%30.33 "HgN/A
4:50 AM52 °FCool.3 mph94%30.33 "HgN/A
4:20 AM52 °FCool.5 mph94%30.33 "HgN/A
3:50 AM54 °FCool.5 mph88%30.33 "HgN/A
3:20 AM55 °FCool.3 mph88%30.33 "HgN/A
2:50 AM55 °FCool.7 mph88%30.33 "HgN/A
2:20 AM55 °FCool.5 mph88%30.33 "HgN/A
1:50 AM55 °FCool.5 mph94%30.33 "HgN/A
6:50 PM
Jul 22
81 °FPleasantly warm.7 mph37%30.27 "HgN/A
6:20 PM81 °FPleasantly warm.6 mph34%30.27 "HgN/A
5:50 PM81 °FPleasantly warm.3 mph37%30.27 "HgN/A
5:20 PM81 °FPassing clouds.8 mph34%30.27 "HgN/A
4:50 PM81 °FPassing clouds.5 mph39%30.27 "HgN/A
4:20 PM81 °FPleasantly warm.3 mph37%30.27 "HgN/A
3:50 PM81 °FPleasantly warm.No wind39%30.27 "HgN/A
3:20 PM77 °FPassing clouds.5 mph47%30.27 "HgN/A
2:50 PM81 °FPassing clouds.5 mph42%30.27 "HgN/A
2:20 PM79 °FPleasantly warm.6 mph39%30.27 "HgN/A
1:50 PM79 °FWarm.6 mph45%30.27 "HgN/A
1:20 PM79 °FWarm.2 mph51%30.27 "HgN/A
12:50 PM75 °FPassing clouds.5 mph57%30.27 "HgN/A
12:20 PM77 °FWarm.3 mph54%30.27 "HgN/A
11:50 AM77 °FWarm.3 mph54%30.27 "HgN/A
11:20 AM75 °FMild.6 mph50%30.27 "HgN/A
Weather by CustomWeather, © 2014

See weather overviewHow to use our weather pages